Location: Choisy
(48.7685°N, 2.4187°E)
Time: 00:26:21
(UTC+00:00)

Envisat - Pass Details

Date: 05 March 2024
Orbit: 762 x 764 km, 98.3° (Epoch: 12 April)

Event Time Altitude Azimuth Distance (km) Brightness Sun altitude
Rises 02:50:03 0° 19° (NNE) 3,241 6.9 -34.3°
Reaches altitude 10° 02:52:29 10° 26° (NNE) 2,310 6.1 -34.0°
Enters shadow 02:56:21 39° 67° (ENE) 1,133 4.2 -33.5°
